User: anonymous   Login
Location: Unspecified
(0.0000°N, 0.0000°E)
Time: 19:52:57
(UTC+02:00)
Language:

Cosmos 1782 Rocket - Orbit

View from above orbital plane
View from above orbital plane
View from above satellite
View from above satellite

Ground track
Ground track

The orbit data is extracted from the following two-line orbital elements,

1 16987U 86074B   16209.72641547  .00000071  00000-0  59030-5 0  9990
2 16987  82.5151 254.2638 0016803 247.6079 251.9194 14.82908685610388
Epoch (UTC): 27 July 2016 17:26:02
Eccentricity: 0.0016803
inclination: 82.5151°
perigee height: 608 km
apogee height: 632 km
right ascension of ascending node: 254.2638°
argument of perigee: 247.6079°
revolutions per day: 14.82908685
mean anomaly at epoch: 251.9194°
orbit number at epoch: 61038

The dashed part of the orbit path shows where the satellite is in the earth's shadow,  

DLR